Temp
-14 -15 -17 -18 -18 -19 -20 -20 -20 -20 -19 -18 -18 -16 -15 -16 -16 -15 -15 -15 -14 -14 -13 -12 -13 -11 -11 -10 -11 -11 -10 -9 -8 -8 -8 -8 -8 -8 -8 -8 -7 -6 -6 -6 -6 -6 -6 -6 -6 -6 -6 -6 -6 -6
-14 -14 -16 -18 -19 -20 -20 -20 -20 -21 -20 -20 -18 -18 -17 -16 -16 -16 -15 -15 -14 -14 -13 -13 -13 -12 -11 -11 -9 -11 -10 -10 -9 -9 -9 -8 -8 -9 -8 -7 -6 -6 -6 -7 -6 -6 -6 -6 -6 -6 -6 -7 -6 -6
-14 -15 -17 -18 -19 -20 -20 -20 -21 -21 -21 -20 -19 -18 -17 -16 -16 -16 -16 -15 -14 -15 -14 -13 -13 -13 -13 -12 -12 -11 -10 -9 -9 -9 -9 -9 -9 -9 -9 -7 -7 -6 -6 -7 -7 -7 -7 -6 -6 -6 -7 -7 -6 -6
-14 -15 -17 -18 -19 -20 -21 -22 -22 -22 -21 -20 -19 -19 -18 -17 -16 -16 -16 -16 -15 -14 -14 -14 -14 -14 -13 -13 -13 -11 -10 -9 -9 -9 -9 -9 -9 -9 -8 -8 -7 -7 -7 -7 -7 -7 -7 -7 -7 -7 -7 -7 -6 -6
-15 -16 -16 -18 -19 -21 -22 -22 -23 -23 -22 -21 -20 -19 -19 -17 -17 -16 -16 -15 -15 -14 -13 -13 -13 -13 -12 -13 -12 -12 -10 -10 -10 -10 -9 -9 -8 -8 -8 -8 -8 -8 -8 -7 -7 -7 -7 -7 -7 -7 -7 -7 -6 -6
-15 -15 -16 -17 -19 -21 -22 -22 -22 -23 -22 -21 -20 -20 -19 -18 -17 -17 -16 -16 -16 -15 -14 -13 -13 -12 -12 -12 -11 -11 -11 -10 -10 -10 -10 -9 -9 -9 -8 -8 -9 -7 -8 -8 -7 -7 -7 -7 -8 -7 -8 -8 -7 -6
-14 -15 -16 -16 -18 -20 -21 -22 -23 -22 -22 -21 -20 -20 -19 -18 -17 -16 -17 -16 -16 -15 -14 -13 -13 -12 -12 -12 -11 -10 -10 -11 -10 -10 -10 -9 -9 -8 -8 -9 -7 -8 -8 -8 -8 -8 -8 -8 -8 -8 -8 -8 -8 -8
-14 -15 -16 -17 -17 -18 -20 -21 -21 -22 -21 -21 -20 -20 -19 -19 -18 -17 -17 -16 -16 -16 -15 -14 -13 -12 -12 -12 -12 -11 -11 -10 -10 -10 -10 -9 -9 -8 -9 -9 -8 -7 -7 -8 -8 -7 -8 -8 -8 -8 -7 -8 -8 -8
-14 -15 -16 -16 -17 -18 -19 -20 -21 -21 -21 -21 -20 -19 -19 -18 -18 -19 -18 -18 -16 -16 -15 -14 -13 -12 -12 -12 -12 -11 -11 -11 -10 -10 -10 -10 -9 -9 -9 -9 -8 -8 -8 -8 -8 -8 -8 -9 -8 -8 -7 -7 -9 -8
-14 -15 -16 -17 -17 -18 -19 -20 -20 -20 -20 -20 -20 -19 -19 -19 -18 -18 -18 -18 -18 -17 -16 -15 -15 -13 -13 -12 -11 -11 -11 -11 -10 -10 -10 -10 -9 -8 -9 -9 -8 -8 -8 -9 -9 -8 -7 -7 -8 -9 -8 -7 -8 -7
-15 -16 -16 -17 -17 -18 -18 -19 -19 -20 -20 -20 -20 -19 -19 -18 -18 -18 -18 -18 -18 -18 -16 -16 -15 -14 -14 -13 -11 -11 -10 -10 -10 -10 -10 -9 -8 -8 -8 -9 -9 -9 -9 -9 -8 -8 -9 -9 -8 -6 -6 -5 -8 -8
-15 -16 -16 -16 -17 -17 -18 -18 -19 -19 -20 -20 -20 -19 -19 -18 -18 -18 -18 -18 -17 -17 -16 -16 -16 -15 -14 -13 -12 -11 -10 -9 -9 -9 -9 -8 -8 -8 -8 -8 -9 -9 -9 -9 -9 -9 -9 -9 -10 -8 -6 -6 -8 -9
-14 -16 -16 -16 -16 -17 -18 -18 -19 -19 -19 -19 -19 -19 -19 -19 -18 -18 -18 -17 -17 -17 -16 -16 -15 -14 -14 -13 -13 -12 -11 -11 -10 -9 -8 -8 -8 -8 -8 -8 -8 -8 -8 -9 -9 -9 -9 -9 -9 -8 -6 -6 -7 -9
-14 -15 -15 -16 -16 -16 -16 -17 -18 -18 -18 -18 -19 -19 -18 -18 -18 -18 -17 -17 -17 -17 -16 -16 -15 -14 -14 -13 -13 -12 -11 -11 -10 -9 -9 -8 -8 -8 -8 -7 -8 -7 -7 -7 -8 -9 -9 -9 -8 -8 -8 -9 -9 -9
-14 -15 -16 -15 -16 -16 -16 -16 -16 -17 -17 -18 -18 -18 -18 -18 -18 -17 -17 -17 -16 -16 -15 -15 -15 -14 -14 -13 -13 -12 -11 -10 -10 -10 -9 -8 -8 -8 -7 -7 -7 -6 -7 -7 -8 -8 -8 -8 -8 -7 -8 -9 -9 -9
-14 -14 -15 -15 -15 -15 -15 -15 -16 -16 -17 -17 -17 -17 -17 -18 -18 -18 -17 -17 -17 -16 -16 -15 -15 -14 -14 -13 -12 -12 -12 -11 -11 -10 -9 -9 -8 -8 -7 -8 -7 -7 -7 -7 -8 -9 -8 -7 -7 -8 -8 -9 -9 -9
-13 -14 -15 -15 -14 -15 -15 -15 -15 -16 -16 -16 -16 -17 -17 -17 -17 -18 -18 -17 -17 -17 -16 -15 -14 -14 -13 -12 -12 -12 -11 -11 -10 -9 -9 -9 -9 -8 -8 -8 -8 -8 -7 -7 -7 -8 -8 -8 -8 -8 -9 -10 -10 -10
-13 -14 -14 -14 -14 -14 -14 -14 -14 -15 -15 -16 -16 -16 -16 -16 -17 -17 -17 -18 -17 -17 -17 -16 -15 -14 -13 -12 -13 -13 -12 -11 -10 -10 -9 -9 -9 -9 -9 -9 -8 -8 -8 -7 -7 -8 -9 -8 -9 -10 -10 -9 -11 -11
-13 -13 -14 -14 -14 -14 -14 -14 -14 -14 -15 -15 -15 -15 -16 -16 -16 -16 -16 -16 -17 -17 -16 -16 -15 -14 -14 -14 -13 -12 -11 -11 -10 -9 -10 -10 -9 -9 -9 -9 -9 -9 -9 -9 -9 -9 -9 -8 -10 -10 -10 -11 -11 -12
-13 -13 -13 -13 -14 -14 -14 -14 -14 -14 -14 -15 -15 -15 -15 -15 -15 -15 -15 -15 -15 -15 -15 -15 -16 -16 -15 -14 -12 -11 -11 -10 -11 -10 -10 -10 -10 -10 -10 -10 -10 -9 -10 -10 -10 -9 -9 -8 -10 -10 -10 -11 -11 -12
-13 -13 -13 -13 -13 -14 -14 -13 -13 -13 -14 -14 -14 -14 -14 -14 -14 -14 -14 -14 -14 -14 -15 -15 -15 -15 -14 -13 -12 -11 -11 -11 -10 -10 -11 -11 -11 -10 -10 -9 -10 -10 -10 -9 -9 -9 -11 -10 -10 -10 -11 -12 -12 -12
-13 -13 -13 -13 -13 -13 -14 -14 -13 -13 -13 -13 -13 -14 -13 -14 -14 -14 -14 -14 -14 -13 -14 -14 -14 -14 -14 -14 -13 -13 -12 -11 -11 -11 -11 -12 -11 -11 -10 -10 -11 -10 -10 -10 -9 -9 -10 -10 -11 -11 -11 -12 -12 -12
-14 -13 -13 -13 -13 -13 -14 -14 -13 -14 -13 -13 -13 -13 -13 -13 -13 -13 -13 -13 -13 -13 -13 -12 -12 -13 -13 -13 -12 -12 -12 -13 -12 -12 -12 -12 -12 -11 -10 -10 -10 -10 -11 -10 -9 -10 -10 -10 -11 -11 -11 -11 -11 -11
-14 -13 -13 -13 -14 -14 -14 -14 -13 -13 -13 -13 -13 -13 -13 -13 -13 -13 -13 -12 -12 -13 -12 -12 -12 -12 -12 -13 -12 -13 -12 -12 -12 -12 -12 -12 -11 -11 -10 -10 -10 -10 -10 -11 -10 -10 -11 -11 -11 -11 -11 -11 -11 -11
-14 -14 -14 -14 -14 -14 -14 -14 -13 -12 -12 -12 -12 -13 -13 -13 -13 -12 -12 -12 -12 -12 -12 -12 -12 -12 -12 -13 -13 -13 -13 -13 -13 -13 -12 -12 -11 -11 -11 -11 -10 -10 -11 -11 -11 -11 -11 -11 -11 -11 -12 -11 -11 -11
-14 -14 -14 -14 -14 -14 -14 -14 -13 -13 -12 -12 -12 -13 -13 -13 -12 -12 -12 -12 -12 -12 -11 -12 -12 -12 -12 -12 -12 -12 -12 -12 -12 -12 -12 -12 -12 -12 -12 -11 -11 -11 -11 -11 -12 -11 -11 -11 -11 -12 -12 -11 -11 -11
-14 -14 -14 -15 -15 -14 -14 -14 -14 -13 -13 -13 -12 -13 -13 -13 -13 -12 -12 -12 -12 -12 -12 -12 -12 -12 -12 -12 -12 -12 -12 -12 -12 -12 -11 -11 -11 -11 -11 -11 -11 -11 -11 -11 -10 -11 -11 -11 -11 -12 -11 -12 -12 -12
-14 -14 -14 -15 -14 -14 -14 -14 -14 -13 -13 -13 -13 -13 -13 -13 -13 -12 -12 -12 -12 -12 -12 -12 -12 -12 -11 -11 -11 -12 -12 -12 -11 -12 -12 -11 -11 -11 -11 -11 -12 -12 -11 -11 -10 -10 -11 -11 -12 -11 -11 -12 -12 -12
-14 -15 -15 -15 -15 -14 -14 -14 -14 -13 -13 -13 -13 -13 -13 -13 -13 -12 -12 -12 -12 -12 -13 -12 -12 -12 -12 -12 -12 -12 -12 -12 -12 -12 -12 -11 -11 -11 -12 -11 -12 -11 -11 -11 -11 -11 -12 -11 -11 -12 -12 -12 -12 -12
-15 -15 -15 -15 -15 -14 -14 -14 -14 -13 -14 -14 -13 -13 -12 -13 -13 -13 -12 -12 -12 -12 -12 -13 -13 -12 -12 -12 -12 -12 -12 -12 -12 -12 -11 -11 -11 -11 -12 -11 -11 -11 -11 -11 -11 -11 -11 -11 -12 -12 -12 -12 -12 -12
-15 -15 -15 -15 -15 -14 -14 -14 -14 -14 -14 -14 -13 -13 -13 -13 -13 -13 -13 -13 -13 -12 -13 -13 -13 -13 -13 -13 -13 -13 -12 -12 -12 -12 -12 -12 -12 -12 -12 -12 -12 -12 -12 -12 -12 -12 -12 -12 -12 -12 -13 -13 -13 -13
-15 -15 -15 -15 -15 -14 -14 -14 -14 -14 -14 -13 -13 -13 -13 -13 -13 -13 -13 -13 -13 -13 -13 -13 -13 -13 -13 -13 -13 -13 -12 -12 -12 -12 -12 -12 -12 -12 -12 -12 -12 -12 -12 -12 -12 -12 -12 -13 -13 -13 -13 -13 -14 -14
-15 -15 -15 -15 -15 -14 -14 -14 -14 -14 -14 -14 -14 -13 -14 -13 -13 -13 -13 -13 -13 -13 -13 -13 -13 -13 -13 -13 -13 -13 -13 -13 -13 -13 -13 -13 -13 -12 -12 -12 -12 -12 -12 -12 -13 -13 -13 -13 -14 -14 -15 -15 -15 -15
Height
5701 5688 5676 5664 5653 5643 5635 5628 5624 5623 5623 5626 5628 5632 5638 5643 5651 5658 5664 5671 5679 5687 5698 5709 5718 5724 5732 5739 5742 5753 5768 5781 5792 5799 5808 5817 5827 5833 5840 5846 5852 5860 5868 5875 5883 5886 5893 5897 5902 5904 5911 5913 5910 5909
5693 5680 5666 5652 5642 5632 5624 5618 5613 5611 5611 5613 5616 5620 5625 5632 5639 5647 5654 5664 5674 5685 5696 5703 5709 5723 5726 5738 5742 5749 5758 5767 5780 5792 5803 5814 5823 5831 5835 5843 5849 5855 5861 5870 5878 5883 5890 5893 5895 5900 5902 5905 5905 5906
5687 5673 5659 5645 5633 5623 5614 5606 5602 5600 5600 5603 5606 5610 5615 5622 5630 5637 5645 5655 5667 5677 5689 5697 5705 5715 5722 5729 5737 5750 5762 5766 5776 5789 5801 5811 5819 5823 5829 5839 5848 5854 5859 5865 5872 5878 5883 5887 5892 5894 5895 5900 5904 5906
5682 5669 5654 5639 5626 5613 5602 5594 5589 5588 5590 5594 5597 5601 5606 5613 5621 5629 5637 5646 5657 5669 5678 5684 5694 5704 5717 5726 5735 5746 5758 5767 5776 5785 5796 5805 5808 5815 5823 5832 5840 5851 5857 5863 5868 5873 5878 5882 5885 5889 5889 5893 5898 5902
5679 5666 5650 5635 5621 5607 5595 5588 5583 5580 5583 5587 5591 5596 5600 5607 5614 5623 5630 5640 5652 5663 5674 5686 5693 5703 5714 5721 5731 5741 5750 5762 5771 5780 5789 5797 5803 5813 5821 5830 5838 5843 5846 5856 5863 5868 5873 5877 5879 5882 5884 5885 5890 5896
5676 5663 5649 5634 5619 5605 5593 5585 5580 5579 5580 5583 5587 5592 5597 5603 5610 5619 5628 5637 5646 5655 5665 5677 5689 5697 5708 5717 5724 5735 5744 5755 5764 5774 5786 5793 5800 5809 5817 5823 5825 5828 5834 5841 5856 5866 5869 5873 5874 5877 5879 5876 5881 5887
5674 5661 5647 5633 5619 5607 5595 5585 5580 5579 5581 5584 5587 5592 5597 5602 5608 5616 5623 5631 5642 5651 5661 5672 5680 5688 5701 5710 5719 5729 5738 5749 5759 5768 5779 5789 5798 5808 5814 5820 5823 5826 5829 5836 5845 5854 5861 5867 5870 5869 5869 5869 5872 5879
5672 5661 5649 5637 5624 5610 5599 5590 5584 5582 5583 5586 5589 5593 5598 5603 5608 5613 5620 5629 5638 5648 5656 5665 5674 5684 5694 5704 5713 5723 5733 5744 5754 5763 5773 5781 5790 5800 5810 5814 5819 5823 5826 5832 5837 5846 5854 5854 5859 5860 5860 5866 5868 5874
5671 5661 5651 5640 5628 5618 5608 5598 5592 5589 5587 5589 5591 5595 5599 5603 5608 5613 5620 5627 5635 5646 5654 5661 5671 5679 5688 5698 5706 5716 5725 5736 5746 5755 5765 5774 5780 5790 5805 5809 5816 5820 5826 5832 5837 5840 5844 5849 5850 5850 5855 5856 5861 5868
5671 5662 5652 5641 5632 5622 5614 5607 5600 5597 5594 5593 5595 5598 5602 5605 5611 5616 5622 5629 5635 5643 5652 5659 5667 5677 5684 5691 5698 5710 5717 5729 5740 5749 5754 5763 5774 5786 5797 5804 5807 5814 5820 5827 5835 5840 5842 5843 5846 5847 5847 5845 5855 5862
5672 5663 5653 5643 5635 5627 5619 5612 5607 5602 5600 5599 5599 5602 5605 5608 5613 5618 5624 5631 5637 5643 5650 5657 5664 5672 5677 5685 5693 5703 5712 5722 5731 5741 5749 5757 5770 5780 5791 5799 5803 5807 5813 5819 5827 5835 5838 5835 5829 5836 5846 5846 5830 5851
5672 5663 5654 5644 5637 5631 5624 5618 5613 5609 5606 5605 5605 5606 5608 5612 5615 5620 5626 5631 5637 5643 5649 5655 5661 5667 5675 5684 5690 5699 5707 5716 5724 5733 5739 5751 5765 5769 5776 5787 5796 5800 5806 5811 5818 5823 5830 5829 5826 5830 5836 5843 5846 5847
5673 5664 5655 5646 5639 5633 5628 5623 5618 5614 5611 5610 5610 5611 5612 5615 5618 5622 5626 5631 5636 5641 5646 5651 5657 5664 5672 5679 5686 5693 5700 5709 5715 5723 5735 5746 5752 5758 5765 5773 5782 5791 5798 5803 5809 5814 5820 5823 5814 5822 5825 5826 5827 5838
5673 5666 5657 5649 5643 5637 5631 5625 5621 5618 5615 5614 5614 5614 5615 5617 5619 5622 5625 5630 5634 5640 5645 5651 5657 5662 5668 5675 5680 5686 5695 5702 5709 5717 5726 5732 5735 5745 5754 5761 5768 5778 5787 5795 5800 5805 5809 5808 5808 5809 5813 5817 5821 5826
5674 5668 5660 5652 5647 5641 5636 5630 5625 5621 5619 5617 5616 5617 5617 5618 5619 5621 5625 5629 5633 5636 5641 5647 5653 5659 5664 5669 5674 5681 5688 5694 5702 5709 5717 5722 5729 5738 5745 5753 5759 5764 5771 5780 5785 5792 5796 5793 5794 5801 5805 5807 5811 5813
5674 5669 5662 5655 5650 5645 5640 5635 5630 5625 5622 5620 5618 5617 5616 5617 5618 5620 5623 5627 5631 5635 5638 5642 5647 5654 5659 5663 5668 5674 5681 5687 5694 5702 5710 5716 5724 5730 5734 5740 5745 5752 5757 5763 5771 5778 5777 5777 5783 5792 5793 5796 5800 5802
5674 5671 5664 5658 5653 5648 5643 5638 5634 5630 5626 5624 5622 5619 5618 5617 5616 5617 5619 5623 5626 5630 5633 5638 5643 5647 5652 5656 5663 5669 5676 5682 5689 5697 5705 5709 5712 5717 5723 5728 5733 5737 5742 5748 5754 5753 5754 5763 5769 5772 5778 5784 5788 5793
5673 5669 5665 5660 5655 5651 5647 5642 5639 5635 5631 5628 5625 5623 5620 5618 5617 5616 5617 5619 5622 5624 5627 5631 5636 5641 5646 5651 5658 5664 5670 5677 5684 5690 5696 5700 5705 5710 5714 5718 5722 5727 5733 5733 5733 5735 5742 5748 5752 5760 5767 5764 5767 5785
5673 5670 5665 5661 5656 5652 5649 5646 5643 5639 5635 5631 5628 5625 5623 5621 5620 5619 5618 5618 5619 5620 5622 5626 5628 5634 5641 5646 5652 5657 5664 5671 5677 5682 5688 5693 5698 5701 5704 5708 5710 5714 5721 5724 5727 5733 5736 5723 5733 5738 5752 5756 5764 5769
5671 5668 5665 5662 5657 5652 5650 5649 5646 5642 5639 5636 5633 5629 5627 5624 5621 5620 5619 5619 5620 5621 5621 5624 5629 5631 5635 5639 5644 5651 5656 5663 5668 5674 5681 5686 5690 5692 5695 5701 5707 5712 5714 5714 5718 5720 5720 5726 5727 5739 5750 5756 5764 5768
5669 5667 5665 5661 5656 5651 5650 5648 5647 5644 5642 5638 5635 5632 5630 5627 5624 5622 5620 5620 5619 5620 5621 5623 5625 5626 5628 5632 5639 5645 5652 5658 5663 5670 5675 5679 5682 5686 5692 5699 5701 5703 5706 5709 5710 5709 5710 5712 5729 5742 5749 5758 5760 5761
5667 5665 5663 5660 5657 5652 5650 5649 5648 5646 5644 5640 5638 5635 5632 5629 5626 5623 5621 5619 5619 5618 5619 5620 5621 5622 5625 5630 5636 5642 5648 5655 5660 5666 5671 5675 5679 5684 5688 5694 5697 5702 5702 5699 5695 5694 5713 5727 5734 5739 5746 5750 5753 5754
5666 5665 5663 5660 5657 5653 5652 5649 5648 5647 5646 5643 5641 5638 5635 5631 5629 5626 5623 5619 5621 5619 5619 5619 5622 5623 5625 5629 5635 5641 5648 5654 5659 5665 5670 5674 5678 5681 5686 5691 5695 5700 5700 5699 5693 5703 5716 5722 5729 5734 5738 5742 5744 5746
5665 5664 5662 5659 5656 5654 5650 5649 5649 5648 5647 5646 5644 5642 5639 5636 5634 5632 5630 5629 5627 5627 5628 5628 5629 5631 5634 5637 5641 5647 5651 5655 5658 5663 5668 5673 5676 5679 5684 5689 5694 5698 5700 5703 5701 5706 5710 5720 5724 5729 5732 5736 5738 5739
5664 5663 5661 5658 5657 5654 5652 5649 5648 5649 5649 5648 5646 5644 5642 5640 5637 5635 5632 5632 5634 5632 5636 5637 5637 5640 5642 5644 5647 5650 5653 5657 5660 5664 5668 5672 5676 5680 5684 5689 5693 5696 5699 5702 5706 5709 5711 5716 5720 5723 5726 5727 5730 5729
5661 5661 5659 5657 5655 5653 5653 5651 5650 5650 5651 5650 5650 5648 5647 5645 5643 5641 5639 5640 5639 5640 5642 5644 5645 5646 5646 5648 5651 5653 5656 5659 5662 5666 5670 5673 5677 5680 5684 5687 5690 5693 5695 5699 5703 5704 5708 5711 5713 5714 5715 5716 5720 5721
5660 5659 5658 5657 5656 5655 5654 5653 5652 5652 5652 5653 5653 5653 5652 5650 5650 5649 5648 5648 5649 5648 5648 5649 5652 5652 5653 5654 5656 5657 5660 5663 5665 5667 5670 5674 5677 5680 5683 5685 5689 5692 5695 5696 5698 5702 5705 5709 5709 5709 5713 5715 5715 5717
5658 5658 5658 5657 5656 5655 5654 5655 5655 5655 5655 5655 5656 5656 5655 5655 5656 5655 5655 5656 5655 5654 5654 5654 5657 5658 5659 5660 5661 5663 5665 5665 5668 5671 5672 5675 5679 5682 5685 5687 5687 5689 5691 5694 5698 5701 5704 5705 5706 5708 5710 5712 5712 5713
5657 5657 5658 5657 5656 5656 5655 5656 5656 5657 5657 5657 5658 5659 5660 5659 5659 5659 5659 5659 5659 5660 5661 5661 5662 5663 5664 5665 5666 5667 5670 5670 5671 5673 5675 5677 5678 5681 5683 5686 5690 5691 5693 5696 5698 5699 5702 5703 5703 5705 5705 5706 5707 5708
5656 5657 5657 5657 5657 5657 5657 5658 5659 5659 5659 5660 5661 5661 5662 5661 5662 5662 5663 5664 5664 5665 5665 5666 5665 5666 5667 5668 5670 5672 5674 5677 5678 5680 5682 5683 5684 5685 5686 5688 5689 5690 5693 5693 5693 5695 5697 5699 5700 5700 5701 5702 5702 5701
5655 5657 5658 5657 5657 5657 5659 5659 5661 5661 5662 5662 5663 5664 5664 5664 5664 5666 5666 5667 5669 5669 5670 5670 5671 5672 5673 5674 5676 5678 5679 5681 5683 5685 5686 5687 5687 5688 5689 5690 5691 5692 5692 5693 5694 5695 5696 5696 5697 5696 5696 5696 5695 5694
5654 5656 5657 5658 5658 5658 5660 5661 5662 5663 5664 5665 5667 5667 5668 5669 5669 5670 5670 5671 5671 5672 5674 5674 5675 5677 5678 5679 5680 5681 5682 5683 5684 5686 5686 5687 5688 5689 5689 5689 5690 5690 5691 5692 5692 5693 5693 5692 5691 5691 5689 5688 5688 5686
5655 5657 5658 5659 5659 5659 5661 5663 5664 5665 5666 5666 5667 5668 5669 5670 5671 5673 5674 5674 5676 5677 5678 5679 5679 5680 5681 5682 5682 5683 5684 5684 5685 5685 5686 5686 5686 5686 5687 5687 5687 5687 5687 5687 5687 5687 5685 5684 5684 5684 5683 5683 5682 5679
Wind_Speed
56 58 58 56 53 46 41 38 37 33 29 27 30 33 35 35 35 37 38 39 48 50 51 55 54 49 35 49 50 42 57 62 62 61 53 49 51 37 37 35 33 41 47 49 38 32 34 28 29 32 28 29 35 38
57 59 60 51 48 43 38 35 31 29 26 23 25 27 33 35 35 38 43 39 47 47 52 51 57 47 49 37 58 44 49 62 68 60 51 46 46 34 36 36 38 44 44 35 43 39 34 31 29 22 26 27 29 34
54 59 60 56 48 42 39 36 32 27 24 21 22 26 23 34 35 38 43 39 47 48 47 54 52 63 35 39 42 43 44 59 62 61 49 44 33 32 28 26 37 37 44 41 36 34 28 37 30 21 30 31 28 29
52 58 58 56 51 47 41 35 28 23 20 17 23 23 20 30 35 37 39 41 46 50 53 55 54 44 38 41 40 40 46 53 53 53 55 47 43 41 38 31 24 31 42 43 38 36 34 30 32 34 32 34 38 36
54 58 59 55 53 47 37 29 22 14 13 15 21 19 24 22 33 35 37 46 43 48 51 51 48 48 48 46 44 43 45 50 51 51 54 57 50 45 38 38 28 26 30 50 41 38 39 29 30 32 34 38 36 29
51 56 59 57 52 45 37 27 19 10 8 15 17 16 23 15 31 33 34 40 39 42 45 51 50 49 48 47 47 44 45 52 54 52 56 58 53 46 42 46 39 36 30 42 51 36 37 33 28 31 34 37 35 33
50 51 52 56 54 46 38 30 15 6 4 13 13 14 17 19 17 34 31 36 38 38 43 45 48 52 48 47 49 48 48 49 55 56 60 59 54 49 43 44 41 40 41 43 45 44 36 34 34 39 41 40 39 32
48 47 47 51 54 45 36 30 18 5 3 10 9 12 13 14 10 29 27 31 39 34 37 40 43 47 50 49 49 51 49 49 52 57 59 63 57 56 44 45 40 41 48 53 53 47 43 43 44 31 41 40 35 28
45 46 47 52 43 40 35 28 22 11 4 6 7 11 13 13 11 24 24 24 34 33 34 38 41 43 47 49 51 50 50 50 52 54 58 62 65 64 52 44 48 37 42 45 46 42 41 28 37 44 36 41 43 28
41 44 46 46 40 34 31 28 22 14 4 3 6 10 13 14 13 19 22 23 24 30 31 34 33 35 39 45 49 51 52 50 51 53 56 60 60 58 63 56 50 49 42 37 38 46 39 46 44 43 53 36 29 25
40 43 46 42 36 30 28 24 23 18 10 3 6 10 14 15 14 18 20 22 23 25 28 30 31 32 36 39 45 49 52 52 51 52 53 56 53 54 58 64 58 57 47 46 48 44 36 48 49 45 44 41 25 24
41 41 42 35 29 32 25 25 20 18 13 7 4 8 13 15 17 18 19 20 23 25 25 26 28 30 32 35 39 41 45 50 52 53 54 53 51 54 57 59 67 68 64 62 59 56 53 50 52 55 48 45 46 29
36 38 40 35 28 25 25 23 18 15 11 8 6 6 10 14 16 18 20 20 21 24 27 28 28 30 31 34 35 37 40 42 44 47 49 50 51 52 53 54 55 55 55 58 56 56 55 56 60 54 50 49 45 39
32 35 38 31 30 30 25 22 21 17 12 5 4 6 9 13 17 20 22 22 22 20 23 25 25 27 29 32 35 38 37 39 41 42 42 43 48 50 52 53 53 53 51 51 50 51 50 54 55 53 53 54 53 48
29 33 35 26 29 28 25 23 23 21 21 12 5 4 9 13 16 20 22 24 25 24 26 26 28 28 29 32 34 35 36 37 37 38 39 43 43 43 43 45 47 50 50 50 52 51 54 60 61 57 56 54 54 52
26 32 34 26 25 24 24 25 26 24 18 14 14 9 3 8 13 20 23 25 26 24 25 28 27 29 31 34 35 35 35 36 35 35 37 38 38 39 40 41 43 43 43 42 45 52 60 63 61 57 59 56 54 48
23 27 28 27 21 23 25 25 25 25 21 18 16 13 10 3 3 10 13 22 28 30 30 30 29 31 33 35 35 34 35 35 33 33 29 28 33 34 34 37 39 42 43 43 44 55 64 63 62 62 57 51 45 43
20 26 25 25 21 20 20 20 21 22 20 18 16 13 15 9 6 8 10 16 23 31 36 35 35 34 34 34 34 35 36 35 34 33 31 31 32 32 33 36 39 41 44 48 52 58 60 61 62 62 55 55 39 43
14 19 21 22 18 17 15 16 20 23 25 24 17 12 10 9 9 8 7 7 11 19 26 33 39 37 36 35 38 39 36 36 35 36 34 33 33 33 34 35 38 42 38 41 42 42 43 64 64 67 46 18 28 31
11 15 18 20 17 16 16 17 19 21 19 18 16 16 17 15 10 10 7 4 7 6 8 10 11 20 32 39 40 39 39 39 39 36 36 35 36 32 34 30 28 30 33 38 37 46 54 34 10 25 36 44 39 35
10 12 15 18 18 19 16 17 16 15 18 17 17 16 16 13 15 16 17 12 8 3 3 8 6 10 17 32 41 42 41 39 39 37 36 34 34 30 31 30 28 31 33 34 45 47 48 21 23 28 30 30 34 31
9 11 14 18 18 19 19 16 15 14 14 14 15 16 14 13 15 15 13 13 11 11 6 2 4 12 17 19 32 25 29 33 30 35 34 30 29 26 31 33 25 21 22 39 30 37 46 32 30 31 32 33 31 30
7 9 12 16 17 16 18 16 13 13 12 14 15 17 12 13 13 15 15 16 17 12 15 13 14 19 21 22 21 19 23 23 22 23 20 20 17 20 28 33 29 23 24 24 33 33 37 31 32 33 32 30 29 29
6 9 10 13 15 16 17 9 9 10 11 12 16 16 14 16 16 16 16 17 23 26 22 19 17 15 17 19 19 19 19 18 19 18 14 11 12 15 19 25 28 26 20 19 16 22 19 22 31 36 27 26 30 35
6 8 11 12 12 10 7 7 7 9 8 8 13 21 18 17 16 15 18 13 16 23 20 18 18 21 17 15 14 15 16 16 16 15 13 12 12 12 14 16 18 19 21 22 20 16 26 25 25 30 29 26 32 24
6 8 11 12 13 6 9 6 3 4 5 7 13 13 10 14 19 22 18 20 21 17 20 21 14 14 13 20 18 20 19 19 17 14 13 14 14 13 15 16 16 15 16 20 19 17 15 18 19 18 23 18 18 16
6 6 7 8 11 7 6 3 3 4 6 9 12 14 10 12 17 19 17 18 17 13 11 15 21 20 17 18 17 16 23 18 14 12 14 14 13 10 8 9 13 13 14 16 16 12 10 12 8 9 12 8 9 11
5 4 3 6 8 3 1 3 6 5 6 9 7 10 10 11 17 16 16 15 17 19 13 12 13 12 14 12 9 10 6 6 12 11 7 8 10 8 8 12 9 11 7 6 15 18 13 9 8 7 7 9 11 13
5 3 2 4 3 2 4 5 6 4 3 5 6 9 11 9 7 11 13 13 17 15 11 8 8 12 10 9 6 12 16 16 18 18 17 16 15 13 11 12 15 17 13 11 11 11 11 8 8 10 10 11 14 17
6 3 1 2 1 3 5 5 5 5 5 5 5 3 6 5 6 11 14 15 13 12 13 11 10 10 10 7 12 16 14 12 10 13 13 13 13 12 12 11 9 7 7 5 3 3 6 9 10 12 14 18 20 22
6 5 3 1 1 5 7 7 5 9 11 6 7 6 8 11 14 13 12 14 13 13 13 13 13 13 15 15 14 12 10 9 10 10 9 8 8 7 8 8 7 6 5 6 8 11 13 15 16 17 19 22 24 26
9 8 5 3 2 6 8 11 9 9 9 7 6 10 11 12 12 11 9 10 11 10 9 10 9 7 6 5 4 3 3 3 3 2 2 4 4 4 4 5 6 8 9 11 13 16 18 19 21 23 24 25 23 23
10 8 7 5 5 11 12 11 10 9 9 10 10 9 9 8 8 9 12 10 8 8 6 4 4 5 5 6 6 4 5 6 6 7 7 7 7 8 10 11 12 13 15 17 19 19 21 20 19 19 19 18 18 18
Wind_Direction
344 340 333 327 322 319 312 306 298 292 282 267 257 239 228 223 217 212 206 206 194 188 185 195 201 199 205 189 188 181 184 188 184 184 183 182 181 185 180 179 177 187 196 198 186 192 189 185 201 211 212 226 242 250
353 346 341 335 330 321 317 310 304 292 281 265 251 243 229 222 216 209 208 204 199 193 191 188 196 191 206 193 193 194 188 191 190 189 194 200 188 197 199 194 190 185 192 193 211 209 200 203 211 218 228 229 245 247
352 351 346 342 338 330 320 307 297 289 276 261 239 239 228 220 216 207 208 199 201 198 196 196 198 201 204 190 193 201 200 192 192 195 189 186 173 186 197 206 203 195 192 194 203 198 211 211 211 223 231 235 238 249
354 356 352 348 343 337 328 316 305 284 265 249 233 237 224 222 210 206 205 197 201 201 201 201 205 201 200 198 197 198 199 197 188 191 186 180 179 185 195 188 179 195 200 197 198 197 207 218 218 215 227 231 238 246
356 358 359 354 350 346 342 333 325 297 251 230 233 228 221 222 208 204 203 197 197 203 203 202 205 204 199 197 195 187 191 188 185 189 187 187 184 185 189 189 182 185 189 203 199 192 201 213 231 236 240 242 246 254
357 360 3 1 357 356 354 346 337 318 236 217 230 222 221 217 208 203 200 198 196 201 204 202 203 209 203 202 201 194 192 188 187 186 188 187 186 189 188 189 182 189 174 183 202 203 202 207 224 239 246 249 254 253
355 359 4 8 7 4 4 2 352 340 220 212 222 216 215 217 207 198 191 196 193 198 202 201 203 206 205 206 205 200 196 192 191 189 187 191 190 188 190 189 186 189 170 177 183 190 203 210 227 221 228 235 243 246
350 352 357 5 7 9 12 15 19 38 175 199 207 202 197 210 216 184 187 193 188 195 200 202 204 205 206 206 210 208 205 200 196 194 192 193 193 189 190 195 191 192 181 179 189 192 198 207 219 231 244 251 249 255
348 349 350 354 5 8 14 21 24 33 123 177 193 189 183 187 191 179 175 189 190 191 198 203 203 203 205 206 210 211 212 209 203 201 199 199 198 195 189 189 202 189 183 185 191 199 201 211 205 215 226 220 236 247
350 353 352 358 1 12 15 20 22 22 32 145 171 178 174 177 188 180 174 181 190 184 194 200 205 204 205 206 210 211 214 214 213 210 209 207 204 203 195 197 195 204 194 194 203 208 220 223 220 234 234 243 249 254
355 356 356 0 357 6 20 19 25 24 27 56 150 172 169 170 174 174 174 180 183 185 191 195 201 200 204 208 211 212 214 217 218 218 219 215 208 210 205 200 203 210 209 215 215 210 228 231 236 239 244 253 220 246
357 358 357 359 0 2 12 21 25 29 33 60 112 161 166 170 169 171 177 181 183 188 191 191 198 199 203 208 211 214 217 219 221 223 225 220 214 217 218 213 211 215 219 225 228 230 224 232 239 249 253 251 245 255
358 359 0 3 4 3 4 9 20 31 35 57 99 145 166 172 177 175 178 184 187 189 195 196 199 201 201 202 207 212 213 215 219 225 228 227 229 228 230 230 226 222 221 225 228 233 234 238 245 250 257 261 267 258
0 0 2 6 14 13 14 11 6 5 58 69 128 155 174 178 181 184 187 188 189 189 199 203 202 204 203 203 204 207 210 214 217 219 220 222 226 228 230 233 236 236 233 229 229 231 234 240 246 249 252 255 256 257
360 3 7 12 10 13 18 21 23 21 23 26 104 183 198 196 197 197 196 196 200 199 202 203 202 203 202 205 205 207 208 211 212 215 218 223 226 226 227 229 233 237 238 233 232 229 233 242 245 245 247 251 256 254
358 359 7 9 11 15 21 23 19 15 16 23 20 29 155 202 210 211 210 204 201 204 208 209 210 208 205 208 208 206 207 208 208 209 211 217 221 225 227 230 231 233 236 235 229 228 234 238 244 247 248 249 250 247
357 357 3 10 9 13 20 20 20 28 33 27 29 27 24 74 185 197 203 205 211 210 208 208 209 213 210 209 209 209 208 215 210 206 206 210 215 216 220 225 227 227 226 227 226 226 230 233 235 238 240 239 235 239
351 355 3 14 17 18 18 25 23 16 22 23 31 35 37 71 90 145 159 179 201 214 213 211 210 210 211 210 209 212 210 213 213 209 207 209 213 219 220 221 221 224 227 226 225 226 227 231 233 234 236 222 212 237
352 352 356 8 14 12 9 8 16 15 17 29 33 22 23 354 4 15 99 141 192 207 214 219 215 210 211 213 211 212 211 207 211 208 209 212 212 215 221 221 223 225 230 234 236 236 237 241 235 230 228 219 227 235
343 351 354 358 3 358 358 358 6 6 14 23 32 34 34 42 43 31 31 74 89 117 158 155 174 203 216 214 208 208 209 208 210 213 211 216 217 220 219 219 225 230 232 234 233 234 222 223 209 195 210 226 233 240
337 345 344 350 354 347 355 357 359 359 5 17 23 21 22 25 23 15 8 4 358 343 189 218 225 206 212 210 207 208 209 210 215 211 209 214 221 223 218 217 224 231 235 244 241 234 231 216 231 205 208 221 231 245
328 330 338 340 348 345 353 6 3 6 26 27 22 13 16 19 17 11 11 7 1 354 348 253 224 213 210 209 209 207 207 203 208 204 210 217 225 223 215 216 223 232 242 252 223 208 206 200 199 207 214 230 242 246
313 322 330 333 336 333 343 352 1 1 23 30 25 20 32 25 14 19 13 11 44 79 92 104 127 113 122 129 146 162 173 183 193 204 218 229 235 228 220 218 224 230 227 245 195 177 181 195 210 220 231 245 250 255
315 317 322 321 330 339 337 360 353 358 17 36 29 15 21 37 38 56 58 84 110 101 101 109 119 133 136 141 148 152 159 169 178 184 188 195 209 217 222 222 226 233 231 229 206 184 192 273 256 245 238 238 258 258
311 322 328 336 342 351 36 16 11 357 23 48 29 4 14 38 66 62 44 96 121 95 98 98 100 110 116 133 145 148 146 149 158 163 164 173 172 172 177 196 214 221 226 228 231 260 249 259 246 245 244 261 258 280
308 319 337 346 354 30 27 16 23 23 47 50 42 13 44 49 56 57 65 74 88 101 114 105 97 98 125 151 136 142 143 143 138 140 152 168 180 180 188 203 218 229 230 232 243 244 236 253 259 252 269 276 266 254
292 315 339 5 21 16 358 16 73 76 54 61 51 15 70 65 60 78 77 69 79 66 68 120 106 100 102 118 127 139 142 141 130 145 147 156 160 175 189 210 212 222 234 241 236 231 227 240 237 243 245 234 211 197
269 306 335 352 354 34 146 144 112 91 69 65 63 63 62 84 78 84 84 69 80 70 61 115 115 109 109 116 120 127 126 159 160 184 209 173 189 187 207 190 171 177 181 222 199 203 202 225 200 181 195 214 235 249
240 258 281 340 359 100 127 116 80 128 67 98 117 78 62 83 77 64 71 79 90 88 88 103 74 90 105 98 65 118 110 106 114 119 123 122 120 126 141 174 167 143 142 151 160 162 173 196 216 233 244 256 264 265
222 229 246 327 276 136 163 158 104 98 119 97 122 110 48 57 73 91 98 99 98 101 100 86 70 68 70 105 126 123 120 117 118 127 133 136 140 144 146 148 150 165 179 173 200 248 258 260 265 270 272 273 277 280
215 189 161 301 258 152 154 157 160 124 128 111 110 105 101 96 96 109 105 104 109 110 98 93 89 94 101 104 111 114 118 127 137 143 147 148 149 156 161 171 186 202 230 252 261 265 267 267 269 271 273 274 274 276
199 177 183 217 199 162 149 143 143 141 145 134 124 145 136 140 129 122 121 122 119 111 110 98 97 113 122 133 128 121 118 125 144 160 194 203 208 219 237 247 255 260 260 263 265 268 272 276 278 277 277 279 281 280
174 176 170 158 134 157 161 133 135 139 137 124 122 120 121 125 132 137 156 144 126 114 110 124 132 129 156 178 186 200 230 241 248 257 258 259 260 262 263 265 267 270 273 274 275 277 280 279 275 273 274 273 275 282